1497121200.83,6362,18.38,74104.0,0.87,-20.19,-15.53,0,*7B
1497121202.08,6363,18.44,74108.0,0.87,-20.15,-15.49,0,*7D
1497121203.33,6364,18.44,74108.8,0.87,-20.15,-15.53,0,*71
1497121204.57,6365,18.44,74108.5,0.87,-20.15,-15.49,0,*7B
1497121205.79,6366,18.44,74110.0,0.89,-20.15,-15.63,0,*7E
1497121207.03,6367,18.38,74110.5,0.87,-20.19,-15.75,0,*7A
1497121208.27,6368,18.44,74110.0,0.87,-20.35,-15.75,0,*7B
1497121209.52,6369,18.44,74106.8,0.87,-20.49,-16.03,0,*73
1497121210.76,6370,18.38,74108.3,0.87,-20.49,-16.03,0,*7B
1497121212.01,6371,18.38,74108.0,0.87,-20.63,-16.09,0,*78
1497121213.26,6372,18.38,74110.8,0.87,-20.63,-16.17,0,*74
1497121214.52,6373,18.44,74110.3,0.87,-20.59,-16.09,0,*73
1497121215.77,6374,18.44,74114.0,0.83,-20.63,-16.23,0,*71
1497121217.03,6375,18.38,74106.5,0.87,-20.79,-16.27,0,*7B
1497121218.25,6376,18.38,74108.0,0.87,-20.63,-16.37,0,*72
1497121219.47,6377,18.44,74108.8,0.85,-20.79,-16.41,0,*7B
1497121220.74,6378,18.38,74110.0,0.83,-20.79,-16.31,0,*75
1497121221.96,6379,18.44,74108.8,0.85,-20.73,-16.51,0,*7E
1497121223.17,6380,18.44,74108.0,0.85,-20.79,-16.41,0,*73
1497121224.39,6381,18.38,74106.3,0.87,-20.73,-16.41,0,*7A
1497121225.61,6382,18.38,74106.0,0.85,-20.73,-16.51,0,*7A
1497121226.81,6383,18.38,74108.3,0.85,-20.59,-16.41,0,*72
1497121228.08,6384,18.38,74108.5,0.83,-20.53,-16.31,0,*7E
1497121229.3,6385,18.44,74108.8,0.85,-20.43,-16.27,0,*7F
1497121230.53,6386,18.38,74108.0,0.85,-20.43,-16.27,0,*7C
1497121231.79,6387,18.44,74110.0,0.83,-20.35,-16.31,0,*7D
1497121233.06,6388,18.38,74108.0,0.83,-20.19,-16.13,0,*7C
1497121234.31,6389,18.38,74106.5,0.85,-20.19,-16.09,0,*70
1497121235.58,6390,18.44,74108.8,0.83,-20.19,-16.13,0,*75
1497121236.78,6391,18.44,74108.0,0.85,-19.95,-15.95,0,*71
1497121237.98,6392,18.38,74108.8,0.85,-19.95,-15.95,0,*72
1497121239.23,6393,18.44,74108.8,0.85,-19.85,-15.89,0,*7F
1497121240.47,6394,18.44,74108.8,0.85,-19.81,-15.89,0,*7C
1497121241.66,6395,18.44,74110.3,0.85,-19.95,-16.03,0,*79
1497121242.88,6396,18.44,74110.8,0.89,-20.09,-16.13,0,*78
1497121244.07,6397,18.38,74108.0,0.89,-19.95,-16.03,0,*77
1497121245.33,6398,18.44,74112.3,0.87,-19.95,-16.09,0,*7C
1497121246.58,6399,18.44,74112.8,0.87,-19.95,-16.17,0,*72
1497121247.8,6400,18.44,74110.5,0.89,-19.99,-16.23,0,*70
1497121249.02,6401,18.38,74106.0,0.89,-19.99,-16.31,0,*72
1497121250.21,6402,18.44,74110.5,0.89,-19.99,-16.45,0,*72
1497121251.42,6403,18.38,74108.5,0.89,-19.99,-16.51,0,*76
1497121252.64,6404,18.38,74110.5,0.89,-20.05,-16.65,0,*79
1497121253.85,6405,18.38,74108.5,0.89,-20.25,-16.65,0,*7A
1497121255.06,6406,18.44,74110.3,0.89,-20.09,-16.65,0,*77
1497121256.29,6407,18.38,74108.8,0.91,-20.09,-16.59,0,*70
1497121257.5,6408,18.38,74112.5,0.89,-20.09,-16.65,0,*79
1497121258.71,6409,18.38,74108.8,0.89,-20.09,-16.65,0,*78
1497121259.93,6410,18.38,74108.5,0.91,-20.05,-16.59,0,*7A
1497121261.16,6411,18.38,74108.8,0.91,-19.95,-16.59,0,*78
1497121262.39,6412,18.44,74110.3,0.91,-19.95,-16.59,0,*7B
1497121263.64,6413,18.38,74108.3,0.91,-19.91,-16.69,0,*7D
1497121264.83,6414,18.38,74108.3,0.93,-20.09,-16.83,0,*77
1497121266.05,6415,18.38,74108.0,0.91,-20.09,-16.83,0,*74
1497121267.27,6416,18.44,74110.5,0.91,-20.05,-16.89,0,*71
1497121268.54,6417,18.38,74108.8,0.91,-20.35,-17.07,0,*74
1497121269.81,6418,18.44,74110.3,0.91,-20.35,-17.21,0,*7F
1497121271.04,6419,18.38,74110.0,0.91,-20.39,-17.35,0,*77
1497121272.26,6420,18.38,74110.3,0.91,-20.39,-17.31,0,*79
1497121273.5,6421,18.38,74108.8,0.91,-20.09,-17.17,0,*7F
1497121274.71,6422,18.38,74110.8,0.89,-20.09,-17.25,0,*74
1497121275.92,6423,18.38,74110.0,0.89,-20.29,-17.41,0,*75
1497121277.14,6424,18.38,74110.5,0.89,-20.15,-17.35,0,*7E
1497121278.41,6425,18.38,74110.8,0.91,-20.19,-17.45,0,*7D
1497121279.63,6426,18.38,74106.5,0.91,-20.25,-17.49,0,*7D
1497121280.88,6427,18.38,74108.3,0.91,-20.19,-17.35,0,*78
1497121282.09,6428,18.38,74110.8,0.91,-20.25,-17.49,0,*73
1497121283.36,6429,18.38,74110.0,0.91,-20.35,-17.63,0,*7B
1497121284.58,6430,18.38,74108.3,0.89,-20.39,-17.79,0,*7D
1497121285.79,6431,18.38,74108.8,0.89,-20.69,-17.93,0,*7D
1497121286.99,6432,18.38,74104.5,0.89,-20.69,-18.07,0,*7C
1497121288.21,6433,18.38,74106.3,0.89,-20.59,-17.97,0,*78
1497121289.44,6434,18.38,74110.3,0.89,-20.59,-17.97,0,*7F
1497121290.69,6435,18.38,74108.3,0.89,-20.53,-17.97,0,*74
1497121291.88,6436,18.38,74110.3,0.89,-20.25,-17.83,0,*73
1497121293.1,6437,18.38,74108.0,0.89,-20.25,-17.79,0,*77
1497121294.3,6438,18.44,74108.3,0.89,-20.25,-17.83,0,*7D
1497121295.49,6439,18.38,74106.3,0.89,-20.25,-17.83,0,*7C
1497121296.71,6440,18.38,74106.3,0.89,-20.15,-17.83,0,*71
1497121297.96,6441,18.38,74108.0,0.87,-20.15,-17.83,0,*7E
1497121299.17,6442,18.38,74108.8,0.87,-20.05,-17.73,0,*73
1497121300.43,6443,18.38,74108.3,0.87,-20.19,-18.01,0,*75
1497121301.63,6444,18.38,74108.3,0.89,-20.43,-18.11,0,*72
1497121302.83,6445,18.38,74110.0,0.89,-20.43,-18.25,0,*74
1497121304.04,6446,18.38,74108.8,0.89,-20.09,-17.97,0,*7F
1497121305.26,6447,18.38,74106.3,0.89,-19.99,-17.93,0,*79
1497121306.5,6448,18.44,74110.5,0.87,-20.05,-17.97,0,*73
1497121307.69,6449,18.38,74108.8,0.89,-20.09,-18.11,0,*71
1497121308.88,6450,18.38,74104.0,0.89,-20.09,-18.07,0,*7E
1497121310.1,6451,18.38,74106.5,0.89,-20.09,-17.97,0,*79
1497121311.32,6452,18.38,74108.8,0.89,-19.95,-17.93,0,*71
1497121312.54,6453,18.38,74110.3,0.89,-19.91,-17.97,0,*70
1497121313.74,6454,18.38,74106.3,0.89,-19.99,-18.07,0,*79
1497121315.0,6455,18.38,74110.8,0.91,-19.85,-17.93,0,*7E
1497121316.25,6456,18.38,74104.3,0.91,-19.91,-17.93,0,*78
1497121317.45,6457,18.44,74110.8,0.93,-19.91,-18.07,0,*79
1497121318.67,6458,18.38,74108.3,0.91,-19.95,-18.07,0,*70
1497121319.89,6459,18.38,74108.0,0.93,-19.91,-18.01,0,*71
1497121321.12,6460,18.38,74106.8,0.91,-19.95,-18.07,0,*7B
1497121322.35,6461,18.38,74106.5,0.91,-19.95,-18.21,0,*7E
1497121323.57,6462,18.38,74108.5,0.93,-19.95,-18.35,0,*7A
1497121324.76,6463,18.38,74110.0,0.93,-19.95,-18.25,0,*7A
1497121325.96,6464,18.38,74108.3,0.93,-19.91,-18.21,0,*7D
1497121327.18,6465,18.44,74108.5,0.93,-19.85,-18.11,0,*7A
1497121328.41,6466,18.38,74110.5,0.93,-19.95,-18.35,0,*7E
1497121329.62,6467,18.38,74106.0,0.97,-19.85,-18.21,0,*7F
1497121330.85,6468,18.38,74108.0,0.91,-19.95,-18.49,0,*79
1497121332.06,6469,18.38,74106.8,0.93,-20.05,-18.55,0,*74
1497121333.26,6470,18.38,74108.5,0.93,-19.95,-18.49,0,*72
1497121334.44,6471,18.38,74108.3,0.93,-20.05,-18.41,0,*78
1497121335.64,6472,18.38,74108.0,0.97,-19.91,-18.45,0,*7C
1497121336.86,6473,18.38,74110.0,0.93,-19.95,-18.55,0,*7C
1497121338.05,6474,18.38,74108.8,0.97,-19.91,-18.49,0,*76
1497121339.25,6475,18.38,74110.0,0.97,-19.91,-18.49,0,*77
1497121340.44,6476,18.38,74110.8,0.97,-19.91,-18.49,0,*74
1497121341.64,6477,18.38,74108.3,0.97,-19.99,-18.49,0,*7D
1497121342.82,6478,18.38,74110.8,0.97,-20.05,-18.79,0,*7E
1497121344.02,6479,18.38,74110.0,0.97,-19.99,-18.73,0,*7A
1497121345.27,6480,18.38,74112.3,0.99,-19.99,-18.59,0,*7A
1497121346.49,6481,18.38,74110.3,0.99,-19.99,-18.73,0,*73
1497121347.68,6482,18.38,74112.8,0.97,-20.05,-18.73,0,*71
1497121348.92,6483,18.38,74114.8,0.99,-20.15,-18.79,0,*75
1497121350.16,6484,18.38,74116.0,0.97,-20.19,-18.93,0,*74
1497121351.42,6485,18.38,74116.3,0.99,-20.15,-18.89,0,*7C
1497121352.63,6486,18.38,74114.5,0.97,-20.05,-18.89,0,*70
1497121353.87,6487,18.38,74116.5,0.99,-20.35,-18.99,0,*7D
1497121355.11,6488,18.38,74112.8,0.97,-20.49,-19.23,0,*77
1497121356.33,6489,18.38,74118.5,0.97,-20.73,-19.41,0,*7B
1497121357.61,6490,18.38,74112.3,0.99,-20.79,-19.57,0,*70
1497121358.86,6491,18.38,74116.3,0.97,-20.79,-19.57,0,*7F
1497121360.1,6492,18.38,74110.5,0.99,-20.79,-19.71,0,*76
1497121361.3,6493,18.38,74108.3,0.97,-20.93,-19.91,0,*73
1497121362.52,6494,18.38,74110.0,0.97,-20.99,-19.91,0,*7E
1497121363.74,6495,18.38,74110.8,0.97,-21.09,-19.85,0,*72
1497121364.96,6496,18.44,74110.3,0.97,-20.99,-20.05,0,*7B
1497121366.16,6497,18.38,74106.5,0.97,-21.09,-20.05,0,*72
1497121367.35,6498,18.38,74106.5,0.97,-21.09,-19.91,0,*7A
1497121368.58,6499,18.44,74108.8,0.93,-21.03,-19.95,0,*71
1497121369.77,6500,18.38,74102.8,0.93,-21.13,-19.95,0,*71
1497121370.97,6501,18.44,74104.0,0.93,-21.17,-20.09,0,*7B
1497121372.17,6502,18.38,74106.0,0.93,-21.17,-20.09,0,*78
1497121373.37,6503,18.38,74106.3,0.93,-21.17,-20.09,0,*79
1497121374.59,6504,18.38,74100.8,0.93,-21.17,-20.19,0,*7F
1497121375.82,6505,18.38,74102.5,0.93,-21.17,-20.19,0,*7E
1497121377.04,6506,18.38,74100.8,0.91,-21.13,-20.09,0,*7A
1497121378.24,6507,18.38,74108.5,0.93,-21.17,-20.09,0,*7D
1497121379.46,6508,18.38,74108.0,0.93,-21.17,-20.19,0,*73
1497121380.69,6509,18.38,74110.3,0.91,-21.13,-20.09,0,*75
1497121381.94,6510,18.38,74110.8,0.91,-21.03,-20.09,0,*7C
1497121383.19,6511,18.38,74110.3,0.91,-21.03,-19.95,0,*72
1497121384.41,6512,18.38,74108.0,0.93,-21.03,-19.91,0,*77
1497121385.63,6513,18.38,74108.5,0.91,-20.93,-19.71,0,*72
1497121386.88,6514,18.38,74110.8,0.91,-20.99,-19.75,0,*7B
1497121388.16,6515,18.38,74108.8,0.91,-20.83,-19.61,0,*74
1497121389.4,6516,18.38,74114.3,0.93,-20.79,-19.61,0,*70
1497121390.65,6517,18.38,74112.5,0.93,-20.79,-19.61,0,*71
1497121391.87,6518,18.38,74110.5,0.93,-20.79,-19.71,0,*7F
1497121393.09,6519,18.38,74110.8,0.93,-20.83,-19.75,0,*7F
1497121394.31,6520,18.38,74110.3,0.93,-20.83,-19.75,0,*75
1497121395.5,6521,18.38,74108.3,0.93,-20.93,-19.75,0,*75
1497121396.72,6522,18.38,74112.5,0.93,-20.83,-19.75,0,*77
1497121397.95,6523,18.38,74110.8,0.93,-20.83,-19.75,0,*76
1497121399.17,6524,18.38,74114.8,0.93,-20.99,-19.95,0,*74
1497121400.37,6525,18.38,74110.8,0.97,-21.09,-20.05,0,*7A
1497121401.62,6526,18.38,74110.5,0.97,-21.23,-20.19,0,*7C
1497121402.84,6527,18.38,74110.5,0.93,-21.17,-20.35,0,*70
1497121404.07,6528,18.38,74110.5,0.93,-21.27,-20.39,0,*70
1497121405.34,6529,18.38,74108.5,0.91,-21.27,-20.35,0,*7F
1497121406.57,6530,18.38,74112.8,0.93,-21.33,-20.39,0,*7C
1497121407.8,6531,18.38,74112.5,0.91,-21.43,-20.39,0,*78
1497121409.0,6532,18.38,74110.5,0.93,-21.43,-20.39,0,*79
1497121410.25,6533,18.38,74112.3,0.91,-21.43,-20.49,0,*7D
1497121411.5,6534,18.38,74112.3,0.93,-21.57,-20.53,0,*76
1497121412.72,6535,18.38,74112.8,0.93,-21.77,-20.79,0,*7D
1497121413.98,6536,18.38,74112.3,0.93,-21.87,-20.83,0,*74
1497121415.2,6537,18.38,74112.0,0.93,-21.77,-20.83,0,*7A
1497121416.45,6538,18.38,74108.0,0.97,-21.83,-20.79,0,*7F
1497121417.72,6539,18.38,74112.3,0.91,-21.87,-20.99,0,*72
1497121418.98,6540,18.38,74110.8,0.91,-21.87,-20.93,0,*76
1497121420.23,6541,18.38,74110.3,0.93,-21.87,-20.79,0,*71
1497121421.48,6542,18.38,74112.8,0.91,-21.77,-20.83,0,*7A
1497121422.71,6543,18.38,74112.5,0.91,-21.77,-20.93,0,*7A
1497121423.98,6544,18.38,74114.0,0.91,-21.87,-20.79,0,*76
1497121425.26,6545,18.38,74112.0,0.91,-21.87,-20.79,0,*77
1497121426.51,6546,18.38,74108.5,0.91,-21.77,-20.83,0,*7E
1497121427.79,6547,18.38,74114.3,0.91,-21.87,-20.83,0,*70
1497121429.03,6548,18.38,74114.3,0.89,-21.97,-20.99,0,*7C
1497121430.25,6549,18.38,74108.5,0.89,-22.03,-21.03,0,*71
1497121431.47,6550,18.38,74112.8,0.89,-22.03,-21.03,0,*79
1497121432.72,6551,18.38,74114.3,0.87,-22.17,-21.13,0,*72
1497121433.91,6552,18.38,74114.0,0.89,-22.03,-21.13,0,*7A
1497121435.12,6553,18.38,74114.0,0.89,-21.97,-21.09,0,*7E
1497121436.36,6554,18.38,74114.5,0.89,-21.97,-20.99,0,*71
1497121437.59,6555,18.38,74114.8,0.89,-21.83,-20.73,0,*71
1497121438.81,6556,18.38,74112.0,0.89,-21.83,-20.73,0,*72
1497121440.0,6557,18.38,74118.0,0.89,-21.93,-20.69,0,*79
1497121441.21,6558,18.38,74116.3,0.89,-21.93,-20.89,0,*78
1497121442.43,6559,18.38,74118.5,0.89,-21.93,-20.83,0,*73
1497121443.62,6560,18.38,74114.3,0.89,-22.03,-21.09,0,*70
1497121444.85,6561,18.38,74112.8,0.89,-22.27,-21.23,0,*7F
1497121446.07,6562,18.38,74110.8,0.89,-22.27,-21.23,0,*7C
1497121447.29,6563,18.38,74114.5,0.89,-22.31,-21.17,0,*7D
1497121448.51,6564,18.38,74110.3,0.89,-22.41,-21.33,0,*7B
1497121449.73,6565,18.38,74108.0,0.89,-22.47,-21.47,0,*7F
1497121450.95,6566,18.38,74110.3,0.89,-22.47,-21.47,0,*7C
1497121452.18,6567,18.38,74112.0,0.87,-22.53,-21.43,0,*72
1497121453.39,6568,18.38,74110.8,0.89,-22.67,-21.57,0,*71
1497121454.6,6569,18.38,74112.8,0.89,-22.73,-21.63,0,*72
1497121455.79,6570,18.38,74104.0,0.89,-22.63,-21.63,0,*7B
1497121457.03,6571,18.38,74110.5,0.87,-22.83,-21.57,0,*7D
1497121458.25,6572,18.38,74110.8,0.85,-22.63,-21.53,0,*76
1497121459.47,6573,18.38,74104.3,0.85,-22.63,-21.53,0,*77
1497121460.66,6574,18.38,74112.3,0.85,-22.63,-21.43,0,*71
1497121461.85,6575,18.38,74108.8,0.85,-22.63,-21.43,0,*70
1497121463.09,6576,18.38,74108.3,0.87,-22.67,-21.53,0,*74
1497121464.36,6577,18.38,74108.0,0.87,-22.77,-21.53,0,*74
1497121465.58,6578,18.38,74110.0,0.87,-22.63,-21.43,0,*7F
1497121466.83,6579,18.38,74108.0,0.87,-22.47,-21.39,0,*75
1497121468.08,6580,18.38,74108.5,0.87,-22.47,-21.39,0,*73
1497121469.32,6581,18.38,74114.0,0.87,-22.47,-21.13,0,*7A
1497121470.54,6582,18.38,74114.5,0.87,-22.63,-21.43,0,*7A
1497121471.76,6583,18.38,74112.5,0.89,-22.73,-21.39,0,*79
1497121473.0,6584,18.38,74108.8,0.89,-22.77,-21.53,0,*76
1497121474.22,6585,18.38,74110.8,0.87,-22.93,-21.73,0,*71
1497121475.47,6586,18.38,74110.8,0.87,-23.13,-21.83,0,*74
1497121476.68,6587,18.38,74112.3,0.87,-23.13,-21.73,0,*7A
1497121477.95,6588,18.38,74114.5,0.87,-23.19,-21.97,0,*75
1497121479.22,6589,18.38,74110.3,0.87,-23.29,-21.97,0,*77
1497121480.47,6590,18.38,74112.0,0.87,-23.29,-22.07,0,*75
1497121481.71,6591,18.38,74110.3,0.85,-23.19,-21.97,0,*7F
1497121482.93,6592,18.38,74114.0,0.85,-23.29,-22.03,0,*71
1497121484.18,6593,18.38,74114.0,0.85,-23.19,-21.87,0,*7C
1497121485.4,6594,18.38,74110.5,0.85,-23.13,-21.97,0,*70
1497121486.6,6595,18.38,74112.5,0.85,-23.09,-21.73,0,*70
1497121487.79,6596,18.38,74114.0,0.85,-23.13,-21.73,0,*78
1497121489.01,6597,18.38,74114.0,0.85,-22.93,-21.57,0,*76
1497121490.24,6598,18.38,74114.0,0.85,-22.97,-21.67,0,*7E
1497121491.46,6599,18.38,74114.3,0.85,-22.97,-21.67,0,*7F
1497121492.66,6600,18.38,74112.5,0.85,-23.09,-21.73,0,*7F
1497121493.91,6601,18.38,74110.5,0.87,-23.13,-21.83,0,*78
1497121495.12,6602,18.38,74112.8,0.87,-23.13,-21.73,0,*74
1497121496.39,6603,18.38,74112.5,0.87,-23.33,-21.97,0,*7D
1497121497.64,6604,18.38,74114.5,0.87,-23.59,-22.17,0,*7D
1497121498.86,6605,18.38,74110.8,0.85,-23.59,-22.21,0,*7B
1497121500.08,6606,18.38,74114.3,0.87,-23.79,-22.37,0,*7F
1497121501.3,6607,18.38,74114.0,0.87,-23.79,-22.37,0,*7E
1497121502.5,6608,18.38,74110.5,0.85,-23.89,-22.53,0,*7E
1497121503.75,6609,18.38,74114.0,0.87,-23.79,-22.47,0,*77
1497121505.01,6610,18.38,74114.0,0.87,-23.75,-22.31,0,*72
1497121506.2,6611,18.38,74110.8,0.85,-23.89,-22.37,0,*74
1497121507.4,6612,18.38,74110.3,0.85,-23.79,-22.37,0,*78
1497121508.59,6613,18.38,74112.0,0.85,-23.79,-22.37,0,*79
1497121509.84,6614,18.38,74114.3,0.85,-23.65,-22.31,0,*75
1497121511.07,6615,18.38,74110.0,0.85,-23.75,-22.31,0,*75
1497121512.27,6616,18.38,74114.3,0.85,-23.75,-22.37,0,*70
1497121513.47,6617,18.38,74112.0,0.85,-23.75,-22.37,0,*71
1497121514.72,6618,18.38,74112.5,0.85,-23.95,-22.47,0,*77
1497121515.95,6619,18.38,74114.3,0.85,-23.95,-22.53,0,*73
1497121517.19,6620,18.38,74116.0,0.87,-23.95,-22.53,0,*7B
1497121518.47,6621,18.38,74112.5,0.83,-24.11,-22.73,0,*77
1497121519.7,6622,18.38,74114.0,0.83,-24.47,-22.97,0,*7D
1497121520.93,6623,18.38,74110.5,0.83,-24.47,-23.13,0,*71
1497121522.14,6624,18.38,74112.5,0.85,-24.47,-23.09,0,*7B
1497121523.37,6625,18.38,74114.3,0.85,-24.41,-23.13,0,*77
1497121524.57,6626,18.38,74114.3,0.85,-24.47,-23.13,0,*72
1497121525.8,6627,18.38,74114.5,0.85,-24.41,-23.13,0,*75
1497121527.05,6628,18.38,74114.0,0.83,-24.61,-23.33,0,*7C
1497121528.3,6629,18.38,74110.3,0.83,-24.77,-23.33,0,*7A
1497121529.57,6630,18.38,74108.3,0.83,-24.83,-23.33,0,*79
1497121530.83,6631,18.38,74110.0,0.85,-24.71,-23.33,0,*73
1497121532.1,6632,18.38,74112.5,0.83,-24.83,-23.53,0,*7D
1497121533.37,6633,18.38,74108.5,0.83,-24.83,-23.53,0,*7C
1497121534.65,6634,18.38,74112.5,0.83,-24.83,-23.65,0,*7E
1497121535.89,6635,18.38,74112.8,0.79,-24.87,-23.59,0,*71
1497121537.1,6636,18.38,74108.0,0.81,-24.93,-23.53,0,*7A
1497121538.34,6637,18.38,74112.5,0.81,-25.03,-23.65,0,*76
1497121539.61,6638,18.38,74112.0,0.79,-25.03,-23.85,0,*70
1497121540.88,6639,18.38,74112.5,0.79,-25.03,-23.85,0,*71
1497121542.08,6640,18.38,74112.8,0.81,-25.09,-23.79,0,*71
1497121543.32,6641,18.38,74112.3,0.79,-25.13,-23.85,0,*7F
1497121544.54,6642,18.38,74112.3,0.79,-25.13,-23.89,0,*70
1497121545.75,6643,18.38,74114.5,0.81,-25.19,-23.99,0,*7D
1497121546.97,6644,18.38,74116.8,0.79,-25.23,-24.05,0,*76
1497121548.2,6645,18.38,74114.3,0.79,-25.35,-24.15,0,*71
1497121549.44,6646,18.38,74114.8,0.79,-25.23,-24.15,0,*75
1497121550.68,6647,18.38,74114.3,0.79,-25.35,-24.21,0,*74
1497121551.87,6648,18.38,74112.5,0.77,-25.23,-24.05,0,*74
1497121553.09,6649,18.38,74112.3,0.77,-25.35,-24.21,0,*74
1497121554.32,6650,18.38,74110.8,0.73,-25.55,-24.41,0,*78
1497121555.54,6651,18.38,74110.8,0.77,-25.35,-24.21,0,*7D
1497121556.76,6652,18.38,74114.3,0.77,-25.35,-24.21,0,*7E
1497121557.96,6653,18.38,74112.3,0.73,-25.39,-24.41,0,*71
1497121559.17,6654,18.38,74110.8,0.73,-25.39,-24.41,0,*76
1497121560.35,6655,18.38,74110.0,0.73,-25.39,-24.47,0,*71
1497121561.53,6656,18.38,74108.3,0.77,-25.23,-24.35,0,*78
1497121562.72,6657,18.38,74110.8,0.77,-25.35,-24.35,0,*7E
1497121563.92,6658,18.38,74112.8,0.73,-25.29,-24.47,0,*7D
1497121565.1,6659,18.38,74114.5,0.73,-25.39,-24.47,0,*7D
1497121566.28,6660,18.38,74110.3,0.73,-25.39,-24.47,0,*77
1497121567.47,6661,18.38,74114.0,0.77,-25.35,-24.57,0,*7F
1497121568.64,6662,18.38,74108.3,0.73,-25.39,-24.47,0,*75
1497121569.85,6663,18.38,74108.3,0.73,-25.19,-24.25,0,*72
1497121571.05,6664,18.38,74110.5,0.73,-25.19,-24.41,0,*77
1497121572.28,6665,18.38,74110.0,0.73,-25.03,-24.21,0,*7B
1497121573.49,6666,18.38,74104.8,0.73,-25.03,-24.05,0,*7E
1497121574.66,6667,18.38,74112.5,0.73,-24.93,-24.05,0,*77
1497121575.85,6668,18.38,74110.5,0.73,-24.93,-23.95,0,*76
1497121577.02,6669,18.38,74110.3,0.73,-24.93,-24.05,0,*79
1497121578.19,6670,18.38,74112.3,0.73,-24.93,-24.05,0,*71
1497121579.39,6671,18.38,74112.3,0.73,-25.23,-24.41,0,*7A
1497121580.57,6672,18.38,74110.8,0.77,-25.19,-24.51,0,*75
1497121581.75,6673,18.38,74114.8,0.73,-25.23,-24.57,0,*7F
1497121582.92,6674,18.38,74110.8,0.73,-25.23,-24.47,0,*79
1497121584.14,6675,18.38,74112.5,0.77,-25.09,-24.41,0,*72
1497121585.35,6676,18.38,74114.3,0.77,-25.03,-24.35,0,*78
1497121586.58,6677,18.38,74112.3,0.73,-25.03,-24.25,0,*7C
1497121587.79,6678,18.38,74112.8,0.73,-25.09,-24.25,0,*79
1497121589.0,6679,18.38,74114.0,0.77,-25.03,-24.35,0,*77
1497121590.18,6680,18.38,74112.0,0.73,-25.09,-24.57,0,*7B
1497121591.37,6681,18.38,74112.3,0.77,-25.19,-24.51,0,*79
1497121592.55,6682,18.38,74112.0,0.77,-25.19,-24.51,0,*7A
1497121593.74,6683,18.38,74112.5,0.77,-25.23,-24.57,0,*74
1497121594.95,6684,18.38,74114.5,0.77,-25.35,-24.67,0,*77
1497121596.16,6685,18.38,74114.8,0.77,-25.23,-24.67,0,*71
1497121597.37,6686,18.38,74114.5,0.77,-25.35,-24.67,0,*75
1497121598.61,6687,18.38,74110.8,0.79,-25.35,-24.83,0,*70
1497121599.85,6688,18.38,74110.8,0.79,-25.23,-24.67,0,*72
1497121601.06,6689,18.38,74112.0,0.77,-25.23,-24.71,0,*7A
1497121602.31,6690,18.38,74116.3,0.79,-25.23,-24.71,0,*7C
1497121603.55,6691,18.38,74116.8,0.79,-25.23,-24.83,0,*70
1497121604.79,6692,18.38,74114.0,0.81,-25.29,-24.67,0,*74
1497121606.0,6693,18.38,74114.3,0.81,-25.35,-24.83,0,*72
1497121607.25,6694,18.38,74114.5,0.79,-25.39,-24.87,0,*7A
1497121608.52,6695,18.38,74116.3,0.79,-25.55,-25.03,0,*7C
1497121609.77,6696,18.38,74116.3,0.79,-25.49,-25.03,0,*72
1497121611.01,6697,18.38,74114.0,0.79,-25.39,-24.87,0,*79
1497121612.26,6698,18.38,74116.5,0.79,-25.55,-25.19,0,*7A
1497121613.51,6699,18.38,74116.8,0.79,-25.55,-25.19,0,*7B
1497121614.79,6700,18.38,74114.5,0.79,-25.55,-25.03,0,*71
1497121616.04,6701,18.38,74114.5,0.79,-25.55,-25.13,0,*71
1497121617.24,6702,18.38,74118.0,0.81,-25.49,-25.19,0,*72
1497121618.46,6703,18.38,74118.3,0.79,-25.65,-25.19,0,*7A
1497121619.68,6704,18.38,74116.5,0.79,-25.65,-25.19,0,*7D
1497121620.88,6705,18.38,74120.3,0.81,-25.49,-25.19,0,*75
1497121622.13,6706,18.31,74114.0,0.79,-25.71,-25.35,0,*74
1497121623.38,6707,18.38,74116.8,0.79,-25.71,-25.35,0,*75
1497121624.57,6708,18.38,74116.0,0.81,-25.61,-25.35,0,*7C
1497121625.82,6709,18.38,74116.0,0.81,-25.71,-25.29,0,*71
1497121627.07,6710,18.38,74116.3,0.79,-25.81,-25.39,0,*70
1497121628.32,6711,18.38,74114.8,0.81,-25.81,-25.45,0,*7D
1497121629.57,6712,18.38,74116.5,0.79,-25.71,-25.49,0,*7A
1497121630.83,6713,18.38,74116.8,0.79,-25.81,-25.49,0,*74
1497121632.07,6714,18.38,74120.0,0.81,-25.81,-25.45,0,*78
1497121633.34,6715,18.38,74122.3,0.79,-25.81,-25.55,0,*7F
1497121634.57,6716,18.38,74116.0,0.79,-25.87,-25.49,0,*77
1497121635.8,6717,18.38,74120.8,0.81,-25.81,-25.49,0,*77
1497121637.02,6718,18.38,74118.5,0.81,-25.65,-25.45,0,*7E
1497121638.27,6719,18.38,74120.0,0.81,-25.75,-25.45,0,*7E
1497121639.52,6720,18.38,74118.3,0.79,-25.87,-25.55,0,*7F
1497121640.75,6721,18.38,74116.8,0.79,-25.87,-25.49,0,*73
1497121642.03,6722,18.38,74118.8,0.79,-25.97,-25.55,0,*7C
1497121643.23,6723,18.38,74118.5,0.81,-25.91,-25.61,0,*7B
1497121644.48,6724,18.38,74118.0,0.79,-25.87,-25.71,0,*7D
1497121645.71,6725,18.38,74116.5,0.79,-25.87,-25.65,0,*79
1497121646.91,6726,18.38,74116.0,0.81,-25.91,-25.65,0,*7A
1497121648.14,6727,18.38,74118.3,0.81,-25.81,-25.61,0,*7E
1497121649.36,6728,18.38,74118.0,0.81,-25.81,-25.65,0,*75
1497121650.59,6729,18.38,74118.0,0.81,-25.81,-25.61,0,*70
1497121651.87,6730,18.38,74114.0,0.79,-25.97,-25.71,0,*79
1497121653.07,6731,18.38,74116.3,0.81,-25.91,-25.65,0,*7C
1497121654.29,6732,18.38,74118.5,0.79,-25.87,-25.65,0,*7F
1497121655.52,6733,18.38,74116.5,0.81,-25.75,-25.61,0,*70
1497121656.75,6734,18.38,74118.8,0.81,-25.81,-25.61,0,*7C
1497121658.03,6735,18.38,74118.8,0.79,-25.81,-25.71,0,*7B
1497121659.26,6736,18.38,74118.8,0.81,-25.75,-25.49,0,*7F
1497121660.53,6737,18.38,74116.0,0.79,-25.97,-25.97,0,*76
1497121661.79,6738,18.38,74118.8,0.79,-26.03,-25.97,0,*77
1497121663.01,6739,18.38,74114.8,0.81,-25.91,-25.97,0,*79
1497121664.26,6740,18.38,74118.3,0.81,-25.81,-25.75,0,*7A
1497121665.52,6741,18.38,74118.5,0.81,-25.81,-25.75,0,*7B
1497121666.77,6742,18.38,74120.0,0.83,-25.81,-25.61,0,*7F
1497121668.0,6743,18.31,74118.3,0.81,-25.75,-25.49,0,*7D
1497121669.22,6744,18.38,74122.3,0.79,-25.91,-25.87,0,*75
1497121670.47,6745,18.38,74122.5,0.81,-25.81,-25.75,0,*7F
1497121671.72,6746,18.38,74118.8,0.81,-25.81,-25.75,0,*7C
1497121672.95,6747,18.38,74122.5,0.81,-25.81,-25.61,0,*78
1497121674.22,6748,18.38,74116.5,0.83,-25.81,-25.75,0,*70
1497121675.48,6749,18.38,74120.3,0.83,-25.91,-25.97,0,*7C
1497121676.72,6750,18.38,74122.0,0.85,-26.17,-26.17,0,*74
1497121677.91,6751,18.38,74118.5,0.85,-26.23,-26.23,0,*75
1497121679.16,6752,18.31,74118.3,0.85,-26.29,-26.29,0,*76
1497121680.36,6753,18.38,74118.8,0.81,-26.45,-26.45,0,*73
1497121681.58,6754,18.38,74116.5,0.83,-26.49,-26.49,0,*76
1497121682.78,6755,18.38,74116.5,0.81,-26.49,-26.65,0,*7B
1497121684.01,6756,18.38,74118.5,0.81,-26.65,-26.77,0,*75
1497121685.2,6757,18.38,74116.3,0.81,-26.61,-26.61,0,*77
1497121686.4,6758,18.38,74120.5,0.81,-26.61,-26.65,0,*7C
1497121687.65,6759,18.38,74116.5,0.79,-26.65,-26.55,0,*7D
1497121688.85,6760,18.38,74120.0,0.81,-26.49,-26.61,0,*79
1497121690.09,6761,18.38,74118.5,0.79,-26.55,-26.65,0,*76
1497121691.32,6762,18.38,74116.0,0.81,-26.65,-26.77,0,*72
1497121692.51,6763,18.31,74114.5,0.81,-26.61,-26.65,0,*74
1497121693.77,6764,18.38,74114.8,0.79,-26.65,-26.71,0,*75
1497121695.01,6765,18.38,74116.3,0.79,-26.55,-26.65,0,*72
1497121696.2,6766,18.31,74116.3,0.81,-26.45,-26.65,0,*77
1497121697.43,6767,18.31,74116.5,0.79,-26.65,-26.65,0,*73
1497121698.7,6768,18.31,74116.0,0.79,-26.71,-26.81,0,*73
1497121699.97,6769,18.38,74118.0,0.79,-26.71,-26.81,0,*72
1497121701.24,6770,18.31,74114.5,0.79,-26.71,-26.81,0,*7A
1497121702.5,6771,18.38,74116.8,0.79,-26.71,-26.71,0,*74
1497121703.7,6772,18.31,74112.5,0.77,-26.65,-26.87,0,*75
1497121704.94,6773,18.38,74114.8,0.77,-26.71,-26.71,0,*78
1497121706.18,6774,18.31,74112.0,0.77,-26.55,-26.71,0,*79
1497121707.42,6775,18.38,74116.0,0.77,-26.55,-26.81,0,*77